SL-16 DEB, 22342

Orbit data source: Space-Track

SL-16 DEB, 22342 is space debris in LEO originally from a launch on Fri, 25 Dec 1992 UTC launched from the Tyuratam Missile And Space Complex (TTMTR). Debris objects in space refer to the collection of defunct objects orbiting the Earth. Examples of debris include non-operational satellites, rocket bodies, and fragments generated from explosions, collisions, or faulty payload assembly.

Loading next visibility...
Identifier
22342, 1992-093AF
Orbit
LEO
Country
Flag of CISCIS
Related business
Manufacturer
Unknown
Mission
Spacecraft
Bus & Motor
Unknown
Mass
Unknown
Launch date (UTC)
1992-12-25 (33 years ago)
Launch vehicle
Unknown
Launch site
Tyuratam Missile And Space Complex (TTMTR)
Object type
Payload
Rocket body
Debris
Shape & HBR
Unknown shape, 0.2 m
Radar Cross Section
Small (<0.1 m²)

Expand to show TLE details & history
Last TLE update: 7 hours ago

TLE from 7 hours ago
0 SL-16 DEB
1 22342U 92093AF  26127.18379515  .00000319  00000-0  25760-3 0  9999
2 22342  70.6969 108.1638 0116581 147.6082 229.3968 13.94794615692330
Epoch: 2026-05-07T04:24Z
TLE epoch observation values (Epoch: 2026-05-07T04:24:39.900Z)
Latitude
15.06386°
Longitude
-177.65494°
Altitude
969.418 km
Speed
7.34 km/s
True Right ascension
07h 34m 10s
True Declination
14° 58' 49"
Sunlit
Object was in daylight at epoch
Visualization orbit readout
Latitude
Unknown
Longitude
Unknown
Altitude
Unknown
Speed
Unknown
Apparent Right ascension
Unknown
Apparent Declination
Unknown
Sunlit
N/A
Visualization observer readout
Local Sidereal Time
19:07:36
Azimuth
Unknown
Elevation
Unknown
Doppler factor
Unknown
Orbital elements
Apogee altitude
994.815 km
Perigee altitude
824.886 km
Semi-major axis
7,287.988 km
Eccentricity
0.01166
Inclination
70.6969°
RAAN
108.1638°
Arg. of periapsis
147.6082°
True anomaly
228.39211°
Mean anomaly
229.3968°
Eccentric anomaly
228.8935°
Mean motion
3.48844 °/min
Orbital period
103.2 mins
BSTAR
0.0002576
Loading maneuver chart data...
Computing Atmospheric mass density...
Loading historical data...
Loading historical data...
Loading historical data...
Loading historical data...
Loading historical data...
Loading historical data...
Loading historical data...

Documentation

Showing up to 5 results
|